カタログに戻る

STARLINK-4274

運用中通信VLEO
NORAD 52865·PAYLOAD·🇺🇸 United States

打ち上げ Jun 17, 2022 から Cape Canaveral Space Force Station

Loading…

次のパス (今後24時間)

TLE

最新Source: CelesTrak SupGP

元期: Sep 15, 2026, 02:27 UTC

1 52865C 22062AM  26258.10256944 -.00030189  00000+0 -89202-3 0  2586
2 52865  53.1603 242.6190 0001183  92.3118 294.6161 15.34403346    10

AllMySatでSTARLINK-4274をリアルタイム追跡

Download on the App Store